ONEWEB-0683, 56719

Orbit data source: Space-Track

ONEWEB-0683, 56719 is a payload satellite owned by One Web (NAA) (UK) in LEO that was launched on Sat, 20 May 2023 UTC via an FALCON 9 launch vehicle from the Air Force Western Test Range (AFWTR). Payloads include a variety of satellites, spacecraft, and rockets equipped with specific instruments for various scientific and technological missions. These include communications satellites like Starlink; space stations such as the ISS; scientific satellites like the Hubble; Earth observation satellites from companies like Planet Labs, Umbra, and HawkEye 360; GPS; miniature CubeSats for education and research; and military/defense satellites.

Loading next visibility...
ONEWEB-0683 details
Identifier
56719, 2023-068K
Orbit
LEO
Last TLE update15 hours ago
Origin
Flag of UKOne Web (NAA) (UK)
ManufacturerOne Web
MissionOperational Commercial Communications
Bus & MotorARROW, Unknown motor
Mass148 kg wet, ~140 kg dry
Launch date (UTC)
2023-05-20 (2 years ago)
Launch vehicle
FALCON 9
Launch site
Air Force Western Test Range (AFWTR)
Object type
Payload
Rocket body
Debris
Shape & HBRTrap Box + 2 Pan, 5 m
Radar Cross Section2.032 m², Large (>1 m²)

Expand to show TLE details & history

TLE from 15 hours ago
0 ONEWEB-0683
1 56719U 23068K   25015.02895137  .00000095  00000-0  21755-3 0  9992
2 56719  87.9078   2.3469 0002093  83.5991 276.5377 13.15547466 81998
Epoch: 2025-01-15T00:41Z
Definitive object data (Epoch: 2025-01-15T00:41:41.398Z)
Latitude-0.00008°
Longitude-122.80276°
Altitude1,204.49 km
Speed7.252 km/s
True Right ascension00h 09m 23s
True Declination0° 00' 00"
Sunlit
Object was in daylight at TLE epoch
Visualization TLE readout
Latitude54.49541°
Longitude-120.00543°
Altitude1,209.406 km
Speed7.255 km/s
Apparent Right ascension02h 24m 37s
Apparent Declination14° 22' 52"
Sunlit
Object is in daylight
Visualization observer readout
Local Sidereal Time16:15:16
Azimuth31.256° NE
Elevation-29.91°
Doppler factor1
Orbital elements
Apogee altitude1,200.473 km
Perigee altitude1,197.301 km
Semi-major axis7,577.024 km
Eccentricity0.0002093
Inclination87.9078°
RAAN2.3469°
Arg. of periapsis83.5991°
True anomaly276.51387°
Mean anomaly276.5377°
Eccentric anomaly276.52579°
Mean motion3.29075 °/min
BSTAR0.00021755
Orbital period109.4 mins
Loading maneuver chart data...
Loading historical data...
Loading historical data...
Loading historical data...
Loading historical data...
Loading historical data...
Loading historical data...
Loading historical data...

ONEWEB-0683 Visibility forecast

Observer location: undefined°, undefined

Span
Click to sort rows by Start time (UTC) header in descending order
Start Az.
Max El. time (UTC)
Max El. Az.
Max El.
End time (UTC)
End Az.
12 mins2025-01-15 22:42:24.005Z148.045° SSE2025-01-15 22:48:24.005Z79.37° E34.863°2025-01-15 22:54:24.005Z15.468° NNE
10 mins2025-01-16 00:33:24.005Z228.364° WSW2025-01-16 00:38:24.005Z287.462° WNW28.062°2025-01-16 00:43:24.005Z337.453° NNW
11 mins2025-01-16 10:10:24.005Z24.769° NE2025-01-16 10:15:24.005Z80.91° E29.188°2025-01-16 10:21:24.005Z141.59° SSE
12 mins2025-01-16 11:59:24.005Z341.67° N2025-01-16 12:05:24.005Z269.412° W33.735°2025-01-16 12:11:24.005Z211.579° SW
|